DAL59 EGLL-KBOS

Flight info

Callsign DAL59
Flight time N/A
Altitude 36000
Route CPT L9 BUCGO DCT FELCA DCT OFSOX DCT SLANY DCT MALOT/M081F380 NATD RIKAL/N0473F380 N572A TOPPS DCT AJJAY OOSHN5
Aircraft A339/H-SADE1E2E3GHIJ1J3J5M1P2RWXY/LB2D1

Departure

Time 2026-05-04 14:29
Airport London Heathrow Airport (EGLL)

Arrival

Time N/A
Airport Boston Logan International Airport (KBOS)
Time Latitude Longitude Altitude Speed Heading
2026-05-04 14:07 51.46962 -0.46471 100 ft 0 kts 56°
2026-05-04 14:11 51.46960 -0.46475 100 ft 2 kts 56°
2026-05-04 14:11 51.46952 -0.46495 100 ft 2 kts 56°
2026-05-04 14:12 51.46944 -0.46514 100 ft 1 kts 56°
2026-05-04 14:12 51.46938 -0.46528 100 ft 2 kts 49°
2026-05-04 14:12 51.46912 -0.46550 100 ft 2 kts
2026-05-04 14:13 51.46897 -0.46550 101 ft 2 kts 348°
2026-05-04 14:13 51.46883 -0.46543 100 ft 1 kts 329°
2026-05-04 14:13 51.46878 -0.46537 100 ft 0 kts 326°
2026-05-04 14:13 51.46877 -0.46537 100 ft 0 kts 326°
2026-05-04 14:15 51.46880 -0.46539 100 ft 1 kts 326°
2026-05-04 14:16 51.46955 -0.46622 100 ft 12 kts 326°
2026-05-04 14:16 51.47044 -0.46712 100 ft 16 kts 341°
2026-05-04 14:17 51.47303 -0.46725 100 ft 19 kts
2026-05-04 14:17 51.47403 -0.46736 100 ft 0 kts 347°
2026-05-04 14:17 51.47409 -0.46738 100 ft 0 kts 347°
2026-05-04 14:18 51.47411 -0.46739 100 ft 0 kts 347°
2026-05-04 14:18 51.47425 -0.46744 100 ft 4 kts 347°
2026-05-04 14:19 51.47514 -0.46549 100 ft 23 kts 89°
2026-05-04 14:19 51.47516 -0.46371 100 ft 24 kts 89°
2026-05-04 14:19 51.47517 -0.46023 100 ft 22 kts 90°
2026-05-04 14:19 51.47513 -0.45774 100 ft 21 kts 96°
2026-05-04 14:20 51.47507 -0.45539 100 ft 19 kts 90°
2026-05-04 14:20 51.47507 -0.45397 100 ft 19 kts 90°
2026-05-04 14:21 51.47597 -0.45042 100 ft 13 kts 94°
2026-05-04 14:21 51.47598 -0.44839 100 ft 22 kts 89°
2026-05-04 14:21 51.47599 -0.44554 100 ft 23 kts 89°
2026-05-04 14:21 51.47597 -0.44344 100 ft 17 kts 96°
2026-05-04 14:22 51.47590 -0.44214 100 ft 17 kts 91°
2026-05-04 14:22 51.47591 -0.44028 100 ft 8 kts 89°
2026-05-04 14:22 51.47591 -0.43920 100 ft 10 kts 90°
2026-05-04 14:22 51.47591 -0.43850 100 ft 0 kts 90°
2026-05-04 14:23 51.47591 -0.43820 100 ft 4 kts 90°
2026-05-04 14:23 51.47591 -0.43724 100 ft 7 kts 90°
2026-05-04 14:23 51.47591 -0.43712 100 ft 0 kts 90°
2026-05-04 14:24 51.47591 -0.43711 100 ft 0 kts 90°
2026-05-04 14:24 51.47592 -0.43685 100 ft 5 kts 90°
2026-05-04 14:24 51.47593 -0.43592 100 ft 9 kts 84°
2026-05-04 14:25 51.47609 -0.43547 100 ft 0 kts 51°
2026-05-04 14:26 51.47609 -0.43546 100 ft 0 kts 51°
2026-05-04 14:26 51.47619 -0.43528 100 ft 3 kts 50°
2026-05-04 14:26 51.47645 -0.43478 100 ft 7 kts 50°
2026-05-04 14:26 51.47691 -0.43415 100 ft 10 kts 26°
2026-05-04 14:27 51.47758 -0.43388 100 ft 5 kts 343°
2026-05-04 14:27 51.47766 -0.43434 100 ft 4 kts 265°
2026-05-04 14:27 51.47766 -0.43448 100 ft 0 kts 269°
2026-05-04 14:27 51.47765 -0.43490 100 ft 22 kts 270°
2026-05-04 14:28 51.47764 -0.44089 100 ft 84 kts 270°
2026-05-04 14:28 51.47760 -0.45332 101 ft 136 kts 270°
2026-05-04 14:28 51.47753 -0.47098 118 ft 177 kts 270°
2026-05-04 14:28 51.47737 -0.49139 438 ft 188 kts 270°
2026-05-04 14:29 51.47659 -0.53199 1783 ft 181 kts 269°
2026-05-04 14:29 51.47132 -0.57443 2505 ft 211 kts 255°
2026-05-04 14:30 51.46719 -0.59800 2850 ft 229 kts 256°
2026-05-04 14:30 51.46289 -0.62357 3225 ft 247 kts 257°
2026-05-04 14:30 51.45551 -0.68034 4270 ft 269 kts 265°
2026-05-04 14:31 51.45438 -0.71057 4999 ft 271 kts 269°
2026-05-04 14:31 51.45390 -0.77090 5947 ft 278 kts 270°
2026-05-04 14:32 51.45342 -0.83305 5972 ft 276 kts 269°
2026-05-04 14:32 51.45334 -0.86356 5966 ft 275 kts 272°
2026-05-04 14:32 51.45491 -0.89417 5979 ft 274 kts 278°
2026-05-04 14:32 51.45811 -0.92439 6000 ft 274 kts 281°
2026-05-04 14:33 51.46158 -0.95438 6009 ft 274 kts 281°
2026-05-04 14:33 51.46506 -0.98433 6013 ft 274 kts 281°
2026-05-04 14:33 51.46851 -1.01422 6014 ft 274 kts 281°
2026-05-04 14:33 51.47200 -1.04453 6015 ft 274 kts 281°
2026-05-04 14:34 51.47537 -1.07417 6015 ft 274 kts 281°
2026-05-04 14:34 51.47881 -1.10450 6016 ft 274 kts 281°
2026-05-04 14:34 51.48217 -1.13418 6016 ft 274 kts 281°
2026-05-04 14:34 51.48561 -1.16463 6017 ft 274 kts 280°
2026-05-04 14:35 51.48900 -1.19452 6016 ft 274 kts 282°
2026-05-04 14:35 51.49585 -1.22291 6012 ft 274 kts 303°
2026-05-04 14:35 51.50842 -1.24592 6220 ft 280 kts 317°
2026-05-04 14:35 51.52269 -1.26710 6929 ft 281 kts 318°
2026-05-04 14:36 51.53699 -1.28816 7650 ft 281 kts 318°
2026-05-04 14:36 51.55133 -1.30949 8281 ft 284 kts 317°
2026-05-04 14:36 51.56578 -1.33122 8893 ft 287 kts 317°
2026-05-04 14:36 51.58044 -1.35338 9513 ft 291 kts 317°
2026-05-04 14:37 51.59514 -1.37588 10121 ft 294 kts 315°
2026-05-04 14:37 51.60858 -1.40101 10534 ft 305 kts 307°
2026-05-04 14:37 51.62019 -1.43051 10859 ft 319 kts 300°
2026-05-04 14:37 51.63079 -1.46204 11420 ft 324 kts 298°
2026-05-04 14:38 51.64124 -1.49396 12072 ft 325 kts 298°
2026-05-04 14:38 51.64825 -1.51536 12490 ft 327 kts 298°
2026-05-04 14:38 51.66245 -1.55851 13319 ft 330 kts 298°
2026-05-04 14:38 51.67324 -1.59114 13938 ft 333 kts 298°
2026-05-04 14:39 51.68414 -1.62404 14559 ft 335 kts 298°
2026-05-04 14:39 51.69510 -1.65774 15175 ft 337 kts 294°
2026-05-04 14:39 51.70336 -1.69323 15773 ft 339 kts 284°
2026-05-04 14:40 51.71087 -1.76826 16978 ft 343 kts 275°
2026-05-04 14:40 51.71343 -1.80630 17562 ft 346 kts 275°
2026-05-04 14:40 51.71606 -1.84481 18152 ft 349 kts 275°
2026-05-04 14:40 51.71880 -1.88363 18745 ft 352 kts 275°
2026-05-04 14:41 51.72162 -1.92328 19339 ft 355 kts 275°
2026-05-04 14:41 51.72442 -1.96278 19914 ft 357 kts 275°
2026-05-04 14:41 51.73000 -2.04212 20980 ft 362 kts 275°
2026-05-04 14:42 51.73566 -2.12330 22000 ft 367 kts 275°
2026-05-04 14:42 51.73852 -2.16423 22494 ft 370 kts 275°
2026-05-04 14:42 51.74139 -2.20537 22981 ft 372 kts 275°
2026-05-04 14:43 51.74425 -2.24685 23463 ft 374 kts 275°
2026-05-04 14:43 51.74710 -2.28849 23933 ft 376 kts 275°
2026-05-04 14:43 51.74994 -2.33041 24394 ft 379 kts 275°
2026-05-04 14:43 51.75277 -2.37251 24834 ft 381 kts 275°
2026-05-04 14:44 51.75560 -2.41506 25263 ft 383 kts 275°
2026-05-04 14:44 51.75845 -2.45786 25687 ft 386 kts 275°
2026-05-04 14:44 51.76129 -2.50094 26106 ft 388 kts 275°
2026-05-04 14:44 51.76416 -2.54427 26512 ft 391 kts 275°
2026-05-04 14:45 51.76703 -2.58798 26909 ft 393 kts 275°
2026-05-04 14:45 51.76992 -2.63205 27300 ft 396 kts 275°
2026-05-04 14:45 51.77285 -2.67670 27680 ft 399 kts 274°
2026-05-04 14:45 51.77573 -2.72109 28042 ft 401 kts 274°
2026-05-04 14:46 51.77860 -2.76577 28394 ft 404 kts 274°
2026-05-04 14:46 51.78148 -2.81087 28740 ft 406 kts 274°
2026-05-04 14:46 51.78436 -2.85622 29073 ft 409 kts 274°
2026-05-04 14:46 51.78724 -2.90182 29394 ft 411 kts 274°
2026-05-04 14:47 51.79011 -2.94778 29711 ft 414 kts 274°
2026-05-04 14:47 51.79298 -2.99395 30030 ft 416 kts 274°
2026-05-04 14:47 51.79585 -3.04045 30356 ft 419 kts 274°
2026-05-04 14:47 51.79871 -3.08721 30666 ft 421 kts 274°
2026-05-04 14:48 51.80158 -3.13443 30969 ft 424 kts 274°
2026-05-04 14:48 51.80444 -3.18182 31265 ft 427 kts 274°
2026-05-04 14:48 51.80730 -3.22945 31535 ft 429 kts 274°
2026-05-04 14:48 51.81015 -3.27739 31782 ft 432 kts 274°
2026-05-04 14:49 51.81300 -3.32568 32025 ft 434 kts 275°
2026-05-04 14:49 51.81490 -3.35803 32185 ft 436 kts 275°
2026-05-04 14:49 51.81868 -3.42295 32492 ft 438 kts 275°
2026-05-04 14:49 51.82152 -3.47194 32699 ft 441 kts 275°
2026-05-04 14:50 51.82470 -3.52070 32906 ft 444 kts 277°
2026-05-04 14:50 51.82951 -3.56993 33117 ft 446 kts 281°
2026-05-04 14:50 51.83565 -3.61898 33326 ft 448 kts 282°
2026-05-04 14:50 51.84213 -3.66870 33533 ft 450 kts 281°
2026-05-04 14:51 51.84858 -3.71812 33735 ft 453 kts 281°
2026-05-04 14:51 51.85505 -3.76787 33932 ft 455 kts 282°
2026-05-04 14:51 51.86150 -3.81780 34123 ft 456 kts 282°
2026-05-04 14:51 51.86793 -3.86789 34313 ft 458 kts 282°
2026-05-04 14:52 51.87437 -3.91831 34509 ft 460 kts 282°
2026-05-04 14:52 51.88081 -3.96885 34704 ft 462 kts 282°
2026-05-04 14:52 51.88723 -4.01958 34893 ft 463 kts 282°
2026-05-04 14:52 51.89367 -4.07064 35075 ft 465 kts 282°
2026-05-04 14:53 51.90010 -4.12175 35251 ft 467 kts 282°
2026-05-04 14:53 51.90652 -4.17304 35420 ft 468 kts 282°
2026-05-04 14:53 51.91295 -4.22454 35566 ft 470 kts 282°
2026-05-04 14:53 51.91938 -4.27632 35708 ft 471 kts 282°
2026-05-04 14:54 51.92581 -4.32823 35861 ft 472 kts 282°
2026-05-04 14:54 51.93223 -4.38035 35985 ft 473 kts 282°
2026-05-04 14:54 51.94504 -4.48489 36006 ft 472 kts 282°
2026-05-04 14:55 51.95768 -4.58884 36007 ft 471 kts 282°
2026-05-04 14:55 51.97022 -4.69285 36007 ft 471 kts 281°
2026-05-04 14:56 51.98266 -4.79689 36010 ft 471 kts 281°
2026-05-04 14:56 51.99499 -4.90087 36015 ft 472 kts 281°
2026-05-04 14:57 52.00724 -5.00508 36018 ft 473 kts 281°
2026-05-04 14:57 52.01942 -5.10961 36066 ft 474 kts 281°
2026-05-04 14:58 52.03370 -5.21364 36087 ft 474 kts 287°
2026-05-04 14:58 52.05007 -5.29864 36059 ft 474 kts 290°
2026-05-04 14:59 52.07413 -5.41686 36041 ft 475 kts 290°
2026-05-04 15:00 52.10486 -5.56972 36037 ft 476 kts 290°
2026-05-04 15:00 52.12526 -5.67232 36037 ft 477 kts 289°
2026-05-04 15:01 52.15538 -5.82636 36039 ft 478 kts 287°
2026-05-04 15:01 52.17088 -5.93131 36043 ft 480 kts 284°
2026-05-04 15:02 52.18484 -6.03790 36044 ft 480 kts 283°
2026-05-04 15:02 52.19852 -6.14325 36050 ft 481 kts 283°
2026-05-04 15:03 52.21225 -6.24934 36053 ft 480 kts 283°
2026-05-04 15:03 52.22595 -6.35603 36061 ft 480 kts 283°
2026-05-04 15:04 52.23945 -6.46201 36068 ft 479 kts 283°
2026-05-04 15:04 52.25282 -6.56769 36079 ft 479 kts 283°
2026-05-04 15:05 52.26613 -6.67356 36084 ft 479 kts 283°
2026-05-04 15:05 52.27934 -6.77950 36089 ft 478 kts 283°
2026-05-04 15:06 52.29253 -6.88614 36091 ft 478 kts 283°
2026-05-04 15:07 52.31201 -7.04514 36089 ft 478 kts 283°
2026-05-04 15:07 52.32486 -7.15109 36088 ft 479 kts 283°
2026-05-04 15:08 52.33767 -7.25745 36085 ft 479 kts 283°
2026-05-04 15:08 52.35039 -7.36412 36083 ft 480 kts 283°
2026-05-04 15:09 52.36303 -7.47091 36079 ft 481 kts 283°
2026-05-04 15:09 52.37568 -7.57856 36075 ft 482 kts 284°
2026-05-04 15:10 52.39438 -7.73945 36074 ft 484 kts 283°
2026-05-04 15:11 52.41308 -7.90228 36074 ft 486 kts 283°
2026-05-04 15:11 52.42537 -8.01070 36075 ft 487 kts 283°
2026-05-04 15:12 52.43758 -8.11928 36075 ft 487 kts 283°
2026-05-04 15:12 52.44969 -8.22784 36079 ft 487 kts 283°
2026-05-04 15:13 52.46172 -8.33666 36085 ft 487 kts 283°
2026-05-04 15:13 52.47364 -8.44535 36086 ft 486 kts 283°
2026-05-04 15:14 52.48542 -8.55377 36087 ft 485 kts 283°
2026-05-04 15:14 52.49711 -8.66231 36089 ft 485 kts 282°
2026-05-04 15:15 52.50874 -8.77130 36093 ft 483 kts 282°
2026-05-04 15:15 52.52016 -8.87937 36098 ft 482 kts 282°
2026-05-04 15:16 52.53704 -9.04079 36100 ft 480 kts 282°
2026-05-04 15:17 52.55367 -9.20213 36098 ft 479 kts 282°
2026-05-04 15:17 52.56823 -9.34524 36098 ft 479 kts 282°
2026-05-04 15:18 52.58083 -9.47061 36098 ft 479 kts 282°
2026-05-04 15:19 52.59685 -9.63196 36099 ft 479 kts 282°
2026-05-04 15:19 52.61270 -9.79381 36102 ft 479 kts 282°
2026-05-04 15:20 52.62313 -9.90167 36104 ft 480 kts 282°
2026-05-04 15:20 52.63347 -10.00966 36107 ft 480 kts 282°
2026-05-04 15:21 52.64370 -10.11764 36108 ft 480 kts 282°
2026-05-04 15:22 52.65889 -10.27970 36114 ft 479 kts 282°
2026-05-04 15:22 52.67380 -10.44138 36114 ft 477 kts 282°
2026-05-04 15:23 52.68359 -10.54895 36114 ft 477 kts 282°
2026-05-04 15:23 52.69331 -10.65711 36115 ft 476 kts 281°
2026-05-04 15:24 52.71233 -10.87173 36115 ft 473 kts 281°
2026-05-04 15:25 52.72163 -10.97846 36115 ft 472 kts 281°
2026-05-04 15:26 52.73542 -11.13864 36115 ft 471 kts 281°
2026-05-04 15:26 52.74895 -11.29842 36116 ft 470 kts 281°
2026-05-04 15:27 52.76227 -11.45837 36116 ft 469 kts 281°
2026-05-04 15:28 52.77535 -11.61825 36115 ft 469 kts 280°
2026-05-04 15:29 52.78817 -11.77765 36114 ft 469 kts 279°
2026-05-04 15:30 52.81726 -12.15010 36116 ft 468 kts 279°
2026-05-04 15:31 52.82928 -12.30849 36116 ft 465 kts 279°
2026-05-04 15:32 52.84878 -12.57243 36113 ft 464 kts 279°
2026-05-04 15:34 52.86768 -12.83583 36114 ft 462 kts 278°
2026-05-04 15:34 52.87875 -12.99420 36114 ft 461 kts 278°
2026-05-04 15:35 52.88953 -13.15146 36114 ft 460 kts 278°
2026-05-04 15:36 52.90007 -13.30850 36114 ft 459 kts 278°
2026-05-04 15:36 52.90698 -13.41309 36113 ft 459 kts 278°
2026-05-04 15:37 52.91374 -13.51686 36113 ft 458 kts 278°
2026-05-04 15:37 52.92044 -13.62127 36113 ft 458 kts 278°
2026-05-04 15:38 52.92705 -13.72561 36113 ft 457 kts 277°
2026-05-04 15:38 52.93361 -13.83056 36113 ft 457 kts 277°
2026-05-04 15:39 52.94002 -13.93484 36113 ft 457 kts 277°
2026-05-04 15:40 52.94945 -14.09115 36113 ft 456 kts 277°
2026-05-04 15:40 52.95563 -14.19537 36113 ft 456 kts 277°
2026-05-04 15:41 52.96171 -14.29938 36113 ft 454 kts 277°
2026-05-04 15:41 52.96767 -14.40302 36113 ft 453 kts 276°
2026-05-04 15:42 52.97351 -14.50639 36113 ft 452 kts 276°
2026-05-04 15:42 52.97928 -14.60990 36113 ft 452 kts 276°
2026-05-04 15:43 52.98495 -14.71359 36362 ft 454 kts 276°
2026-05-04 15:43 52.98775 -14.76551 36558 ft 454 kts 276°
2026-05-04 15:43 52.99052 -14.81733 36788 ft 453 kts 276°
2026-05-04 15:43 52.99328 -14.86906 37012 ft 452 kts 276°
2026-05-04 15:44 52.99693 -14.92053 37219 ft 451 kts 279°
2026-05-04 15:44 53.00214 -14.97156 37417 ft 450 kts 282°
2026-05-04 15:44 53.00893 -15.02204 37615 ft 450 kts 285°
2026-05-04 15:44 53.01729 -15.07182 37806 ft 450 kts 288°
2026-05-04 15:45 53.02720 -15.12086 37992 ft 449 kts 290°
2026-05-04 15:45 53.03797 -15.16938 38115 ft 450 kts 291°
2026-05-04 15:45 53.04887 -15.21788 38135 ft 450 kts 291°
2026-05-04 15:46 53.07062 -15.31486 38148 ft 449 kts 291°
2026-05-04 15:46 53.09208 -15.41121 38133 ft 449 kts 291°
2026-05-04 15:47 53.11357 -15.50830 38113 ft 449 kts 291°
2026-05-04 15:47 53.13494 -15.60534 38110 ft 448 kts 290°
2026-05-04 15:48 53.15619 -15.70236 38112 ft 448 kts 290°
2026-05-04 15:48 53.18787 -15.84782 38114 ft 447 kts 290°
2026-05-04 15:49 53.20887 -15.94478 38114 ft 446 kts 290°
2026-05-04 15:49 53.22977 -16.04176 38113 ft 446 kts 289°
2026-05-04 15:50 53.25058 -16.13878 38113 ft 446 kts 289°
2026-05-04 15:50 53.27131 -16.23591 38105 ft 445 kts 289°
2026-05-04 15:51 53.29191 -16.33289 38102 ft 444 kts 289°
2026-05-04 15:51 53.31239 -16.42977 38111 ft 444 kts 289°
2026-05-04 15:52 53.33277 -16.52664 38115 ft 444 kts 289°
2026-05-04 15:52 53.35307 -16.62362 38115 ft 443 kts 289°
2026-05-04 15:53 53.37328 -16.72058 38115 ft 443 kts 288°
2026-05-04 15:53 53.39337 -16.81750 38114 ft 443 kts 288°
2026-05-04 15:54 53.41340 -16.91452 38113 ft 443 kts 288°
2026-05-04 15:54 53.43334 -17.01164 38112 ft 443 kts 288°
2026-05-04 15:55 53.45321 -17.10886 38112 ft 443 kts 288°
2026-05-04 15:55 53.47300 -17.20617 38111 ft 443 kts 288°
2026-05-04 15:56 53.49279 -17.30392 38111 ft 442 kts 288°
2026-05-04 15:56 53.51239 -17.40128 38111 ft 442 kts 288°
2026-05-04 15:57 53.53191 -17.49869 38111 ft 442 kts 288°
2026-05-04 15:57 53.55135 -17.59624 38111 ft 442 kts 288°
2026-05-04 15:58 53.57072 -17.69389 38111 ft 441 kts 288°
2026-05-04 15:58 53.58997 -17.79141 38113 ft 441 kts 288°
2026-05-04 15:59 53.60914 -17.88896 38113 ft 441 kts 288°
2026-05-04 15:59 53.62811 -17.98607 38115 ft 441 kts 288°
2026-05-04 16:00 53.64709 -18.08371 38116 ft 441 kts 288°
2026-05-04 16:00 53.66598 -18.18141 38117 ft 440 kts 288°
2026-05-04 16:01 53.68480 -18.27915 38117 ft 440 kts 288°
2026-05-04 16:01 53.70350 -18.37690 38122 ft 440 kts 288°
2026-05-04 16:02 53.72212 -18.47469 38123 ft 440 kts 288°
2026-05-04 16:03 53.74992 -18.62159 38125 ft 440 kts 288°
2026-05-04 16:03 53.76836 -18.71974 38127 ft 440 kts 287°
2026-05-04 16:04 53.78676 -18.81803 38127 ft 440 kts 287°
2026-05-04 16:04 53.81419 -18.96563 38125 ft 440 kts 287°
2026-05-04 16:05 53.83237 -19.06412 38125 ft 441 kts 287°
2026-05-04 16:06 53.85950 -19.21210 38123 ft 441 kts 287°
2026-05-04 16:07 53.89543 -19.41003 38121 ft 441 kts 287°
2026-05-04 16:08 53.93100 -19.60809 38121 ft 441 kts 287°
2026-05-04 16:09 53.97494 -19.85615 38123 ft 440 kts 286°
2026-05-04 16:10 54.00167 -20.05788 38128 ft 441 kts 277°
2026-05-04 16:11 54.01081 -20.26471 38132 ft 441 kts 274°
2026-05-04 16:12 54.02260 -20.57531 38145 ft 441 kts 274°
2026-05-04 16:13 54.03005 -20.78251 38170 ft 441 kts 274°
2026-05-04 16:14 54.03714 -20.98984 38173 ft 441 kts 274°
2026-05-04 16:16 54.04551 -21.24911 38175 ft 441 kts 274°
2026-05-04 16:17 54.05331 -21.50861 38178 ft 442 kts 273°
2026-05-04 16:18 54.05917 -21.71675 38181 ft 443 kts 272°
2026-05-04 16:19 54.06600 -21.97750 38185 ft 443 kts 272°
2026-05-04 16:20 54.07226 -22.23812 38186 ft 443 kts 272°
2026-05-04 16:22 54.07795 -22.49906 38185 ft 443 kts 272°
2026-05-04 16:23 54.08409 -22.81207 38182 ft 442 kts 272°
2026-05-04 16:25 54.08937 -23.12436 38188 ft 441 kts 272°
2026-05-04 16:26 54.09449 -23.48826 38192 ft 441 kts 272°
2026-05-04 16:28 54.09746 -23.74757 38196 ft 440 kts 271°
2026-05-04 16:29 54.10069 -24.11024 38205 ft 439 kts 272°
2026-05-04 16:31 54.10234 -24.36899 38226 ft 439 kts 272°
2026-05-04 16:32 54.10358 -24.67991 38226 ft 440 kts 271°
2026-05-04 16:33 54.10396 -24.88727 38224 ft 439 kts 271°
2026-05-04 16:34 54.10402 -25.04253 38224 ft 439 kts 271°
2026-05-04 16:35 54.10352 -25.35298 38226 ft 439 kts 270°
2026-05-04 16:36 54.10297 -25.50803 38228 ft 438 kts 270°
2026-05-04 16:37 54.10222 -25.66293 38230 ft 438 kts 270°
2026-05-04 16:38 54.10091 -25.86947 38233 ft 438 kts 270°
2026-05-04 16:39 54.09878 -26.12766 38280 ft 438 kts 270°
2026-05-04 16:40 54.09667 -26.33427 38293 ft 438 kts 270°
2026-05-04 16:41 54.09354 -26.59249 38291 ft 438 kts 270°
2026-05-04 16:43 54.08987 -26.85012 38292 ft 439 kts 269°
2026-05-04 16:43 54.08739 -27.00540 38296 ft 439 kts 269°
2026-05-04 16:45 54.08184 -27.31552 38299 ft 439 kts 269°
2026-05-04 16:46 54.07660 -27.57387 38303 ft 439 kts 269°
2026-05-04 16:47 54.07201 -27.78042 38306 ft 438 kts 268°
2026-05-04 16:48 54.06708 -27.98672 38308 ft 438 kts 268°
2026-05-04 16:49 54.06181 -28.19302 38310 ft 438 kts 268°
2026-05-04 16:50 54.05617 -28.39925 38310 ft 438 kts 268°
2026-05-04 16:51 54.05170 -28.55402 38308 ft 439 kts 268°
2026-05-04 16:52 54.04543 -28.76051 38305 ft 439 kts 267°
2026-05-04 16:53 54.04049 -28.91521 38302 ft 439 kts 267°
2026-05-04 16:54 54.03359 -29.12186 38301 ft 440 kts 267°
2026-05-04 16:55 54.02255 -29.43198 38303 ft 440 kts 267°
2026-05-04 16:56 54.01272 -29.69044 38308 ft 440 kts 266°
2026-05-04 16:57 54.00652 -29.84549 38310 ft 440 kts 266°
2026-05-04 16:58 54.00256 -30.05243 38313 ft 440 kts 273°
2026-05-04 17:00 54.01482 -30.36257 38312 ft 440 kts 274°
2026-05-04 17:01 54.02452 -30.62125 38306 ft 441 kts 274°
2026-05-04 17:02 54.03189 -30.82834 38299 ft 441 kts 273°
2026-05-04 17:03 54.03718 -30.98384 38299 ft 441 kts 273°
2026-05-04 17:03 54.04227 -31.13963 38300 ft 442 kts 273°
2026-05-04 17:04 54.04877 -31.34773 38279 ft 442 kts 274°
2026-05-04 17:05 54.05492 -31.55566 38179 ft 442 kts 274°
2026-05-04 17:06 54.05927 -31.71147 38167 ft 442 kts 272°
2026-05-04 17:07 54.06298 -31.85027 38164 ft 442 kts 272°
2026-05-04 17:07 54.06609 -31.97153 38163 ft 442 kts 272°
2026-05-04 17:08 54.06990 -32.12673 38162 ft 442 kts 272°
2026-05-04 17:09 54.07235 -32.23134 38160 ft 442 kts 272°
2026-05-04 17:09 54.07469 -32.33532 38158 ft 442 kts 272°
2026-05-04 17:10 54.08015 -32.59533 38151 ft 442 kts 273°
2026-05-04 17:11 54.08218 -32.69931 38150 ft 442 kts 272°
2026-05-04 17:12 54.08506 -32.85539 38145 ft 442 kts 272°
2026-05-04 17:13 54.08940 -33.11522 38141 ft 443 kts 272°
2026-05-04 17:14 54.09250 -33.32488 38139 ft 444 kts 272°
2026-05-04 17:15 54.09457 -33.48171 38139 ft 443 kts 272°
2026-05-04 17:16 54.09702 -33.69076 38139 ft 443 kts 272°
2026-05-04 17:17 54.09912 -33.89997 38138 ft 444 kts 272°
2026-05-04 17:18 54.10085 -34.10928 38138 ft 444 kts 272°
2026-05-04 17:19 54.10222 -34.31860 38137 ft 444 kts 272°
2026-05-04 17:20 54.10322 -34.52731 38135 ft 444 kts 272°
2026-05-04 17:20 54.10373 -34.68440 38134 ft 444 kts 271°
2026-05-04 17:21 54.10410 -34.89359 38131 ft 443 kts 271°
2026-05-04 17:22 54.10415 -34.99808 38129 ft 443 kts 271°
2026-05-04 17:23 54.10397 -35.20684 38122 ft 442 kts 271°
2026-05-04 17:24 54.10360 -35.36314 38117 ft 442 kts 271°
2026-05-04 17:25 54.10278 -35.57130 38113 ft 441 kts 271°
2026-05-04 17:26 54.10161 -35.77908 38110 ft 440 kts 271°
2026-05-04 17:27 54.09967 -36.03839 38106 ft 439 kts 271°
2026-05-04 17:28 54.09771 -36.24551 38104 ft 439 kts 271°
2026-05-04 17:29 54.09412 -36.55468 38096 ft 439 kts 271°
2026-05-04 17:31 54.09057 -36.80931 38055 ft 439 kts 270°
2026-05-04 17:32 54.08641 -37.06758 38051 ft 438 kts 270°
2026-05-04 17:33 54.08268 -37.27351 38049 ft 436 kts 270°
2026-05-04 17:34 54.07862 -37.47856 38063 ft 434 kts 271°
2026-05-04 17:35 54.07312 -37.73374 38071 ft 433 kts 270°
2026-05-04 17:36 54.07076 -37.83551 38069 ft 432 kts 270°
2026-05-04 17:36 54.06832 -37.93705 38066 ft 431 kts 270°
2026-05-04 17:37 54.06581 -38.03846 38062 ft 431 kts 270°
2026-05-04 17:37 54.06321 -38.13974 38060 ft 430 kts 270°
2026-05-04 17:38 54.06054 -38.24094 38057 ft 430 kts 270°
2026-05-04 17:38 54.05777 -38.34213 38056 ft 430 kts 270°
2026-05-04 17:39 54.05347 -38.49374 38056 ft 429 kts 270°
2026-05-04 17:39 54.05049 -38.59470 38059 ft 429 kts 271°
2026-05-04 17:40 54.04744 -38.69559 38062 ft 429 kts 270°
2026-05-04 17:40 54.04429 -38.79648 38067 ft 429 kts 270°
2026-05-04 17:41 54.04107 -38.89716 38069 ft 428 kts 270°
2026-05-04 17:41 54.03777 -38.99764 38074 ft 426 kts 270°
2026-05-04 17:42 54.03440 -39.09762 38075 ft 425 kts 270°
2026-05-04 17:42 54.03096 -39.19722 38077 ft 423 kts 270°
2026-05-04 17:43 54.02745 -39.29647 38077 ft 422 kts 270°
2026-05-04 17:43 54.02386 -39.39531 38074 ft 420 kts 270°
2026-05-04 17:44 54.02021 -39.49365 38073 ft 417 kts 271°
2026-05-04 17:44 54.01650 -39.59163 38067 ft 415 kts 271°
2026-05-04 17:45 54.01274 -39.68880 38066 ft 413 kts 270°
2026-05-04 17:45 54.00892 -39.78551 38056 ft 411 kts 270°
2026-05-04 17:46 54.00503 -39.88180 38052 ft 409 kts 270°
2026-05-04 17:46 54.00108 -39.97775 38043 ft 408 kts 271°
2026-05-04 17:47 53.99628 -40.07344 38038 ft 408 kts 269°
2026-05-04 17:47 53.99071 -40.16890 38032 ft 408 kts 269°
2026-05-04 17:48 53.98512 -40.26377 38029 ft 408 kts 269°
2026-05-04 17:48 53.97945 -40.35911 38033 ft 408 kts 269°
2026-05-04 17:49 53.97372 -40.45447 38033 ft 407 kts 269°
2026-05-04 17:49 53.96792 -40.54974 38038 ft 407 kts 269°
2026-05-04 17:50 53.96206 -40.64488 38038 ft 407 kts 269°
2026-05-04 17:50 53.95612 -40.74000 38041 ft 407 kts 269°
2026-05-04 17:51 53.95013 -40.83495 38041 ft 406 kts 268°
2026-05-04 17:51 53.94407 -40.92973 38039 ft 405 kts 268°
2026-05-04 17:52 53.93793 -41.02436 38038 ft 405 kts 268°
2026-05-04 17:52 53.93172 -41.11889 38034 ft 405 kts 268°
2026-05-04 17:53 53.92546 -41.21324 38032 ft 404 kts 268°
2026-05-04 17:53 53.91913 -41.30750 38027 ft 404 kts 267°
2026-05-04 17:54 53.91271 -41.40176 38024 ft 404 kts 267°
2026-05-04 17:54 53.90628 -41.49523 38019 ft 404 kts 267°
2026-05-04 17:55 53.89971 -41.58940 38016 ft 404 kts 267°
2026-05-04 17:55 53.89308 -41.68345 38015 ft 404 kts 266°
2026-05-04 17:56 53.88642 -41.77685 38017 ft 404 kts 266°
2026-05-04 17:56 53.87960 -41.87150 38020 ft 404 kts 266°
2026-05-04 17:57 53.87280 -41.96478 38019 ft 403 kts 266°
2026-05-04 17:57 53.86584 -42.05921 38016 ft 403 kts 266°
2026-05-04 17:58 53.85885 -42.15297 38013 ft 403 kts 266°
2026-05-04 17:58 53.85179 -42.24672 38012 ft 403 kts 266°
2026-05-04 17:59 53.84470 -42.33979 38011 ft 403 kts 266°
2026-05-04 18:00 53.83383 -42.48090 38010 ft 403 kts 265°
2026-05-04 18:00 53.82657 -42.57384 38009 ft 403 kts 265°
2026-05-04 18:01 53.81915 -42.66797 38010 ft 403 kts 265°
2026-05-04 18:01 53.81170 -42.76147 38008 ft 403 kts 264°
2026-05-04 18:02 53.80040 -42.90154 38006 ft 402 kts 264°
2026-05-04 18:02 53.79283 -42.99470 38024 ft 402 kts 263°
2026-05-04 18:03 53.78518 -43.08815 38023 ft 405 kts 262°
2026-05-04 18:03 53.77733 -43.18214 37981 ft 406 kts 262°
2026-05-04 18:04 53.76935 -43.27640 37965 ft 408 kts 262°
2026-05-04 18:05 53.75723 -43.41827 37966 ft 409 kts 261°
2026-05-04 18:05 53.74906 -43.51296 37967 ft 410 kts 261°
2026-05-04 18:06 53.73665 -43.65516 37968 ft 410 kts 260°
2026-05-04 18:06 53.72827 -43.74997 37965 ft 410 kts 260°
2026-05-04 18:07 53.71981 -43.84481 37961 ft 411 kts 260°
2026-05-04 18:07 53.71127 -43.93977 37958 ft 411 kts 260°
2026-05-04 18:08 53.70266 -44.03471 37956 ft 411 kts 260°
2026-05-04 18:08 53.69397 -44.12960 37955 ft 411 kts 260°
2026-05-04 18:09 53.67641 -44.31885 37951 ft 412 kts 259°
2026-05-04 18:10 53.66748 -44.41377 37949 ft 412 kts 259°
2026-05-04 18:10 53.65845 -44.50888 37947 ft 412 kts 259°
2026-05-04 18:11 53.64934 -44.60393 37945 ft 413 kts 259°
2026-05-04 18:11 53.64016 -44.69908 37944 ft 414 kts 258°
2026-05-04 18:12 53.63088 -44.79431 37942 ft 414 kts 258°
2026-05-04 18:12 53.62154 -44.88961 37939 ft 414 kts 258°
2026-05-04 18:13 53.61211 -44.98490 37936 ft 415 kts 258°
2026-05-04 18:14 53.59778 -45.12802 37933 ft 416 kts 257°
2026-05-04 18:14 53.58811 -45.22361 37930 ft 417 kts 257°
2026-05-04 18:15 53.56849 -45.41511 37924 ft 418 kts 257°
2026-05-04 18:16 53.55856 -45.51092 37922 ft 418 kts 256°
2026-05-04 18:16 53.54853 -45.60675 37915 ft 418 kts 256°
2026-05-04 18:17 53.53332 -45.75054 37800 ft 418 kts 256°
2026-05-04 18:18 53.51794 -45.89433 37675 ft 419 kts 255°
2026-05-04 18:18 53.50757 -45.99037 37640 ft 419 kts 255°
2026-05-04 18:19 53.49187 -46.13430 37626 ft 420 kts 255°
2026-05-04 18:19 53.48133 -46.23025 37633 ft 420 kts 255°
2026-05-04 18:20 53.47066 -46.32634 37633 ft 422 kts 255°
2026-05-04 18:20 53.45988 -46.42270 37629 ft 423 kts 255°
2026-05-04 18:21 53.44899 -46.51919 37626 ft 423 kts 255°
2026-05-04 18:21 53.43802 -46.61581 37621 ft 424 kts 255°
2026-05-04 18:22 53.42695 -46.71255 37617 ft 425 kts 253°
2026-05-04 18:22 53.41579 -46.80941 37613 ft 426 kts 253°
2026-05-04 18:23 53.40452 -46.90644 37605 ft 427 kts 253°
2026-05-04 18:23 53.39314 -47.00368 37597 ft 428 kts 253°
2026-05-04 18:24 53.38165 -47.10113 37592 ft 429 kts 253°
2026-05-04 18:24 53.37004 -47.19882 37589 ft 430 kts 252°
2026-05-04 18:25 53.35835 -47.29661 37586 ft 431 kts 252°
2026-05-04 18:25 53.34654 -47.39450 37584 ft 431 kts 252°
2026-05-04 18:26 53.33465 -47.49249 37581 ft 432 kts 252°
2026-05-04 18:26 53.32265 -47.59056 37577 ft 433 kts 252°
2026-05-04 18:27 53.31054 -47.68868 37574 ft 433 kts 251°
2026-05-04 18:27 53.29836 -47.78678 37570 ft 433 kts 251°
2026-05-04 18:28 53.28610 -47.88491 37567 ft 434 kts 251°
2026-05-04 18:28 53.27373 -47.98310 37563 ft 434 kts 251°
2026-05-04 18:29 53.26129 -48.08127 37559 ft 434 kts 251°
2026-05-04 18:29 53.24875 -48.17954 37537 ft 436 kts 251°
2026-05-04 18:30 53.22964 -48.32790 37533 ft 440 kts 250°
2026-05-04 18:31 53.21671 -48.42737 37540 ft 441 kts 250°
2026-05-04 18:31 53.20369 -48.52689 37538 ft 441 kts 250°
2026-05-04 18:32 53.19056 -48.62645 37532 ft 442 kts 250°
2026-05-04 18:32 53.17734 -48.72608 37526 ft 443 kts 249°
2026-05-04 18:33 53.16401 -48.82584 37520 ft 443 kts 249°
2026-05-04 18:33 53.15057 -48.92576 37515 ft 445 kts 249°
2026-05-04 18:34 53.13701 -49.02592 37511 ft 446 kts 249°
2026-05-04 18:34 53.12330 -49.12640 37508 ft 448 kts 249°
2026-05-04 18:35 53.10947 -49.22708 37504 ft 449 kts 249°
2026-05-04 18:35 53.09552 -49.32799 37501 ft 450 kts 249°
2026-05-04 18:36 53.08145 -49.42904 37498 ft 451 kts 249°
2026-05-04 18:36 53.06729 -49.53012 37494 ft 451 kts 249°
2026-05-04 18:37 53.05300 -49.63131 37491 ft 453 kts 249°
2026-05-04 18:37 53.03861 -49.73269 37487 ft 453 kts 248°
2026-05-04 18:38 53.02409 -49.83407 37474 ft 454 kts 248°
2026-05-04 18:38 53.00946 -49.93551 37455 ft 454 kts 247°
2026-05-04 18:39 52.99155 -50.03465 37421 ft 447 kts 242°
2026-05-04 18:39 52.96904 -50.13002 37351 ft 446 kts 239°
2026-05-04 18:40 52.94607 -50.22535 37293 ft 449 kts 239°
2026-05-04 18:40 52.92284 -50.32133 37305 ft 452 kts 239°
2026-05-04 18:41 52.89942 -50.41769 37339 ft 453 kts 239°
2026-05-04 18:41 52.87591 -50.51405 37345 ft 453 kts 239°
2026-05-04 18:42 52.85232 -50.61034 37341 ft 454 kts 239°
2026-05-04 18:42 52.82864 -50.70654 37335 ft 453 kts 239°
2026-05-04 18:43 52.80493 -50.80249 37328 ft 453 kts 239°
2026-05-04 18:43 52.78112 -50.89836 37322 ft 453 kts 239°
2026-05-04 18:44 52.75721 -50.99423 37316 ft 454 kts 239°
2026-05-04 18:44 52.73334 -51.08952 37310 ft 455 kts 239°
2026-05-04 18:45 52.70920 -51.18551 37304 ft 455 kts 239°
2026-05-04 18:45 52.68496 -51.28150 37300 ft 456 kts 239°
2026-05-04 18:46 52.66059 -51.37751 37302 ft 457 kts 239°
2026-05-04 18:46 52.63602 -51.47361 37297 ft 458 kts 239°
2026-05-04 18:47 52.61142 -51.56993 37294 ft 459 kts 239°
2026-05-04 18:47 52.58673 -51.66643 37291 ft 460 kts 238°
2026-05-04 18:48 52.56182 -51.76271 37287 ft 460 kts 238°
2026-05-04 18:48 52.53687 -51.85922 37290 ft 461 kts 238°
2026-05-04 18:49 52.51173 -51.95573 37292 ft 462 kts 238°
2026-05-04 18:49 52.48637 -52.05218 37280 ft 462 kts 238°
2026-05-04 18:50 52.46106 -52.14881 37269 ft 464 kts 238°
2026-05-04 18:50 52.43556 -52.24564 37283 ft 465 kts 238°
2026-05-04 18:51 52.40986 -52.34239 37306 ft 465 kts 239°
2026-05-04 18:51 52.38424 -52.43914 37312 ft 465 kts 238°
2026-05-04 18:52 52.35842 -52.53561 37312 ft 465 kts 239°
2026-05-04 18:52 52.33261 -52.63206 37309 ft 465 kts 239°
2026-05-04 18:53 52.30673 -52.72831 37305 ft 464 kts 238°
2026-05-04 18:53 52.28069 -52.82440 37301 ft 465 kts 238°
2026-05-04 18:54 52.25454 -52.92036 37288 ft 465 kts 238°
2026-05-04 18:54 52.22833 -53.01645 37272 ft 466 kts 238°
2026-05-04 18:55 52.20214 -53.11262 37261 ft 466 kts 238°
2026-05-04 18:55 52.16244 -53.25663 37247 ft 467 kts 238°
2026-05-04 18:56 52.13591 -53.35266 37242 ft 468 kts 238°
2026-05-04 18:56 52.10921 -53.44866 37237 ft 468 kts 239°
2026-05-04 18:57 52.08242 -53.54475 37234 ft 469 kts 239°
2026-05-04 18:57 52.05550 -53.64088 37234 ft 470 kts 239°
2026-05-04 18:58 52.02837 -53.73738 37232 ft 469 kts 238°
2026-05-04 18:58 52.00128 -53.83332 37240 ft 470 kts 238°
2026-05-04 18:59 51.97401 -53.92945 37240 ft 470 kts 238°
2026-05-04 18:59 51.94680 -54.02501 37250 ft 471 kts 238°
2026-05-04 19:00 51.91941 -54.12085 37253 ft 471 kts 238°
2026-05-04 19:00 51.89190 -54.21665 37263 ft 471 kts 238°
2026-05-04 19:01 51.86433 -54.31229 37263 ft 471 kts 238°
2026-05-04 19:01 51.83667 -54.40774 37256 ft 471 kts 238°
2026-05-04 19:02 51.80883 -54.50299 37253 ft 470 kts 237°
2026-05-04 19:02 51.77724 -54.59412 37247 ft 465 kts 233°
2026-05-04 19:03 51.74353 -54.68318 37244 ft 465 kts 232°
2026-05-04 19:03 51.70972 -54.77216 37241 ft 465 kts 232°
2026-05-04 19:04 51.67601 -54.86060 37236 ft 465 kts 232°
2026-05-04 19:04 51.64219 -54.94899 37234 ft 466 kts 233°
2026-05-04 19:05 51.60831 -55.03727 37233 ft 466 kts 233°
2026-05-04 19:05 51.57435 -55.12545 37234 ft 466 kts 233°
2026-05-04 19:06 51.54029 -55.21355 37233 ft 467 kts 233°
2026-05-04 19:06 51.51180 -55.28703 37235 ft 467 kts 233°
2026-05-04 19:07 51.47179 -55.38987 37233 ft 468 kts 233°
2026-05-04 19:07 51.43734 -55.47802 37233 ft 469 kts 233°
2026-05-04 19:08 51.40284 -55.56603 37231 ft 469 kts 233°
2026-05-04 19:08 51.36817 -55.65420 37229 ft 470 kts 232°
2026-05-04 19:09 51.33337 -55.74242 37227 ft 470 kts 232°
2026-05-04 19:09 51.30060 -55.82520 37221 ft 470 kts 232°
2026-05-04 19:10 51.26551 -55.91352 37216 ft 470 kts 232°
2026-05-04 19:10 51.23062 -56.00105 37212 ft 470 kts 233°
2026-05-04 19:11 51.19563 -56.08855 37207 ft 470 kts 233°
2026-05-04 19:11 51.16056 -56.17595 37194 ft 470 kts 233°
2026-05-04 19:12 51.10772 -56.30703 37187 ft 472 kts 233°
2026-05-04 19:13 51.07228 -56.39462 37187 ft 472 kts 233°
2026-05-04 19:13 51.03650 -56.48275 37185 ft 472 kts 233°
2026-05-04 19:14 51.00107 -56.56974 37183 ft 471 kts 233°
2026-05-04 19:14 50.96556 -56.65660 37181 ft 471 kts 233°
2026-05-04 19:15 50.92989 -56.74356 37179 ft 471 kts 233°
2026-05-04 19:15 50.89372 -56.83145 37179 ft 471 kts 233°
2026-05-04 19:16 50.85794 -56.91812 37179 ft 471 kts 233°
2026-05-04 19:16 50.82224 -57.00431 37179 ft 471 kts 233°
2026-05-04 19:17 50.78640 -57.09056 37179 ft 471 kts 233°
2026-05-04 19:17 50.75051 -57.17663 37182 ft 471 kts 233°
2026-05-04 19:18 50.71453 -57.26260 37186 ft 471 kts 233°
2026-05-04 19:18 50.67847 -57.34847 37189 ft 472 kts 233°
2026-05-04 19:19 50.64234 -57.43427 37190 ft 472 kts 233°
2026-05-04 19:19 50.60616 -57.51990 37191 ft 472 kts 233°
2026-05-04 19:20 50.56992 -57.60538 37192 ft 472 kts 234°
2026-05-04 19:20 50.53334 -57.69140 37194 ft 471 kts 233°
2026-05-04 19:21 50.49699 -57.77658 37195 ft 471 kts 233°
2026-05-04 19:21 50.46067 -57.86142 37197 ft 470 kts 233°
2026-05-04 19:22 50.42432 -57.94605 37202 ft 470 kts 233°
2026-05-04 19:22 50.38779 -58.03084 37208 ft 470 kts 233°
2026-05-04 19:23 50.35131 -58.11524 37212 ft 469 kts 233°
2026-05-04 19:23 50.31473 -58.19959 37215 ft 469 kts 233°
2026-05-04 19:24 50.27894 -58.28188 37217 ft 469 kts 233°
2026-05-04 19:24 50.24225 -58.36596 37220 ft 470 kts 233°
2026-05-04 19:25 50.20538 -58.45020 37224 ft 470 kts 233°
2026-05-04 19:25 50.16861 -58.53393 37227 ft 470 kts 233°
2026-05-04 19:26 50.13168 -58.61776 37233 ft 470 kts 233°
2026-05-04 19:26 50.09439 -58.70214 37240 ft 470 kts 233°
2026-05-04 19:27 50.05731 -58.78576 37243 ft 470 kts 233°
2026-05-04 19:27 50.02010 -58.86939 37244 ft 471 kts 233°
2026-05-04 19:28 49.98279 -58.95309 37244 ft 471 kts 233°
2026-05-04 19:28 49.94554 -59.03637 37236 ft 471 kts 233°
2026-05-04 19:29 49.90822 -59.11943 37227 ft 470 kts 233°
2026-05-04 19:29 49.87082 -59.20244 37234 ft 468 kts 233°
2026-05-04 19:30 49.83350 -59.28507 37244 ft 468 kts 233°
2026-05-04 19:30 49.79631 -59.36716 37248 ft 468 kts 233°
2026-05-04 19:31 49.75891 -59.44943 37251 ft 468 kts 233°
2026-05-04 19:31 49.72139 -59.53169 37253 ft 469 kts 233°
2026-05-04 19:32 49.68388 -59.61364 37256 ft 469 kts 233°
2026-05-04 19:32 49.64648 -59.69516 37258 ft 469 kts 232°
2026-05-04 19:33 49.60845 -59.77771 37261 ft 470 kts 232°
2026-05-04 19:33 49.57069 -59.85937 37264 ft 470 kts 232°
2026-05-04 19:34 49.53283 -59.94105 37267 ft 470 kts 232°
2026-05-04 19:34 49.49514 -60.02216 37268 ft 470 kts 232°
2026-05-04 19:35 49.45724 -60.10349 37271 ft 470 kts 232°
2026-05-04 19:35 49.41891 -60.18547 37278 ft 470 kts 232°
2026-05-04 19:36 49.38092 -60.26648 37286 ft 469 kts 232°
2026-05-04 19:36 49.34314 -60.34679 37288 ft 469 kts 233°
2026-05-04 19:37 49.30490 -60.42786 37288 ft 468 kts 233°
2026-05-04 19:37 49.26689 -60.50822 37290 ft 467 kts 233°
2026-05-04 19:38 49.22885 -60.58839 37294 ft 467 kts 233°
2026-05-04 19:38 49.19051 -60.66891 37299 ft 466 kts 232°
2026-05-04 19:39 49.15253 -60.74846 37312 ft 465 kts 232°
2026-05-04 19:39 49.11452 -60.82786 37330 ft 464 kts 232°
2026-05-04 19:40 49.07653 -60.90701 37339 ft 464 kts 232°
2026-05-04 19:40 49.03849 -60.98597 37344 ft 464 kts 232°
2026-05-04 19:41 49.00044 -61.06475 37348 ft 463 kts 233°
2026-05-04 19:41 48.96237 -61.14332 37352 ft 463 kts 233°
2026-05-04 19:42 48.92421 -61.22186 37357 ft 462 kts 233°
2026-05-04 19:42 48.88615 -61.29995 37363 ft 462 kts 233°
2026-05-04 19:43 48.84806 -61.37787 37368 ft 461 kts 233°
2026-05-04 19:43 48.80995 -61.45562 37373 ft 461 kts 233°
2026-05-04 19:44 48.77183 -61.53317 37380 ft 460 kts 233°
2026-05-04 19:44 48.73370 -61.61051 37386 ft 460 kts 233°
2026-05-04 19:45 48.69557 -61.68761 37393 ft 459 kts 232°
2026-05-04 19:45 48.65745 -61.76448 37399 ft 458 kts 232°
2026-05-04 19:46 48.61934 -61.84111 37406 ft 457 kts 232°
2026-05-04 19:46 48.58127 -61.91746 37412 ft 457 kts 232°
2026-05-04 19:47 48.54318 -61.99363 37421 ft 456 kts 232°
2026-05-04 19:47 48.50509 -62.06958 37435 ft 455 kts 233°
2026-05-04 19:48 48.46701 -62.14529 37448 ft 455 kts 233°
2026-05-04 19:48 48.42893 -62.22081 37447 ft 454 kts 233°
2026-05-04 19:49 48.39087 -62.29607 37450 ft 453 kts 233°
2026-05-04 19:49 48.35280 -62.37114 37459 ft 453 kts 233°
2026-05-04 19:50 48.31471 -62.44604 37465 ft 453 kts 233°
2026-05-04 19:50 48.27657 -62.52083 37469 ft 453 kts 233°
2026-05-04 19:51 48.23837 -62.59554 37473 ft 453 kts 233°
2026-05-04 19:51 48.20003 -62.67029 37477 ft 454 kts 232°
2026-05-04 19:52 48.16163 -62.74498 37482 ft 454 kts 232°
2026-05-04 19:52 48.12321 -62.81949 37488 ft 454 kts 232°
2026-05-04 19:53 48.08473 -62.89389 37492 ft 454 kts 232°
2026-05-04 19:53 48.04617 -62.96825 37495 ft 455 kts 232°
2026-05-04 19:54 48.00755 -63.04260 37497 ft 455 kts 232°
2026-05-04 19:54 47.96881 -63.11698 37505 ft 455 kts 232°
2026-05-04 19:55 47.93012 -63.19100 37511 ft 453 kts 232°
2026-05-04 19:55 47.89137 -63.26492 37506 ft 451 kts 233°
2026-05-04 19:56 47.85278 -63.33836 37498 ft 450 kts 233°
2026-05-04 19:56 47.81431 -63.41139 37495 ft 450 kts 233°
2026-05-04 19:57 47.77580 -63.48428 37501 ft 451 kts 233°
2026-05-04 19:57 47.73708 -63.55734 37510 ft 451 kts 233°
2026-05-04 19:58 47.69838 -63.63020 37515 ft 452 kts 233°
2026-05-04 19:58 47.65945 -63.70329 37519 ft 452 kts 232°
2026-05-04 19:59 47.62056 -63.77608 37525 ft 452 kts 232°
2026-05-04 19:59 47.58167 -63.84871 37531 ft 452 kts 232°
2026-05-04 20:00 47.54269 -63.92130 37535 ft 452 kts 232°
2026-05-04 20:00 47.50367 -63.99377 37538 ft 452 kts 232°
2026-05-04 20:01 47.46460 -64.06616 37541 ft 452 kts 232°
2026-05-04 20:01 47.42548 -64.13842 37547 ft 452 kts 232°
2026-05-04 20:02 47.38632 -64.21059 37553 ft 452 kts 232°
2026-05-04 20:02 47.34715 -64.28258 37556 ft 452 kts 232°
2026-05-04 20:03 47.30793 -64.35448 37560 ft 451 kts 232°
2026-05-04 20:03 47.26869 -64.42622 37566 ft 451 kts 232°
2026-05-04 20:04 47.22946 -64.49774 37579 ft 450 kts 232°
2026-05-04 20:04 47.19024 -64.56907 37594 ft 450 kts 232°
2026-05-04 20:05 47.15101 -64.64022 37597 ft 449 kts 232°
2026-05-04 20:05 47.11188 -64.71101 37596 ft 449 kts 231°
2026-05-04 20:06 47.07268 -64.78172 37598 ft 449 kts 231°
2026-05-04 20:06 47.03345 -64.85235 37603 ft 448 kts 231°
2026-05-04 20:07 46.99398 -64.92321 37606 ft 447 kts 231°
2026-05-04 20:07 46.95475 -64.99345 37609 ft 447 kts 231°
2026-05-04 20:08 46.91549 -65.06360 37611 ft 446 kts 231°
2026-05-04 20:08 46.87613 -65.13366 37614 ft 446 kts 231°
2026-05-04 20:09 46.83684 -65.20339 37616 ft 446 kts 231°
2026-05-04 20:09 46.79759 -65.27293 37619 ft 446 kts 231°
2026-05-04 20:10 46.75829 -65.34238 37621 ft 445 kts 231°
2026-05-04 20:10 46.71898 -65.41170 37623 ft 445 kts 231°
2026-05-04 20:11 46.67968 -65.48083 37625 ft 444 kts 232°
2026-05-04 20:11 46.64044 -65.54971 37628 ft 444 kts 232°
2026-05-04 20:12 46.60119 -65.61840 37631 ft 443 kts 232°
2026-05-04 20:12 46.56155 -65.68761 37634 ft 443 kts 231°
2026-05-04 20:13 46.52229 -65.75597 37637 ft 442 kts 231°
2026-05-04 20:13 46.48309 -65.82406 37641 ft 441 kts 231°
2026-05-04 20:14 46.44391 -65.89195 37649 ft 440 kts 231°
2026-05-04 20:14 46.40473 -65.95967 37659 ft 440 kts 231°
2026-05-04 20:15 46.36556 -66.02722 37673 ft 439 kts 231°
2026-05-04 20:15 46.32640 -66.09459 37688 ft 439 kts 231°
2026-05-04 20:16 46.28718 -66.16190 37698 ft 438 kts 231°
2026-05-04 20:16 46.24831 -66.22845 37703 ft 438 kts 231°
2026-05-04 20:17 46.20889 -66.29572 37706 ft 438 kts 231°
2026-05-04 20:17 46.16967 -66.36251 37708 ft 438 kts 231°
2026-05-04 20:18 46.13041 -66.42921 37709 ft 438 kts 231°
2026-05-04 20:18 46.09110 -66.49586 37709 ft 438 kts 231°
2026-05-04 20:19 46.05175 -66.56241 37710 ft 438 kts 231°
2026-05-04 20:19 46.01227 -66.62901 37710 ft 439 kts 231°
2026-05-04 20:20 45.97282 -66.69540 37711 ft 439 kts 230°
2026-05-04 20:20 45.93324 -66.76185 37721 ft 439 kts 230°
2026-05-04 20:21 45.89362 -66.82821 37731 ft 437 kts 231°
2026-05-04 20:21 45.84104 -66.91603 37722 ft 435 kts 231°
2026-05-04 20:22 45.79522 -66.99235 37717 ft 434 kts 231°
2026-05-04 20:22 45.75596 -67.05754 37716 ft 434 kts 231°
2026-05-04 20:23 45.71664 -67.12273 37716 ft 434 kts 231°
2026-05-04 20:23 45.67726 -67.18784 37716 ft 434 kts 231°
2026-05-04 20:24 45.63762 -67.25326 37717 ft 434 kts 231°
2026-05-04 20:24 45.60501 -67.30693 37717 ft 434 kts 231°
2026-05-04 20:25 45.55895 -67.38257 37718 ft 434 kts 231°
2026-05-04 20:25 45.51934 -67.44744 37719 ft 434 kts 231°
2026-05-04 20:26 45.47969 -67.51223 37721 ft 434 kts 231°
2026-05-04 20:26 45.43994 -67.57703 37722 ft 434 kts 231°
2026-05-04 20:27 45.40031 -67.64144 37724 ft 434 kts 231°
2026-05-04 20:27 45.36024 -67.70596 37727 ft 435 kts 229°
2026-05-04 20:28 45.31711 -67.76598 37729 ft 436 kts 224°
2026-05-04 20:28 45.27089 -67.82162 37734 ft 437 kts 223°
2026-05-04 20:29 45.22463 -67.87704 37738 ft 436 kts 223°
2026-05-04 20:29 45.17840 -67.93224 37747 ft 436 kts 223°
2026-05-04 20:30 45.13216 -67.98727 37756 ft 436 kts 223°
2026-05-04 20:30 45.08590 -68.04218 37764 ft 435 kts 223°
2026-05-04 20:31 45.03972 -68.09687 37768 ft 434 kts 223°
2026-05-04 20:31 44.99360 -68.15135 37778 ft 434 kts 223°
2026-05-04 20:32 44.94745 -68.20578 37782 ft 434 kts 223°
2026-05-04 20:32 44.90121 -68.26018 37779 ft 433 kts 223°
2026-05-04 20:33 44.85487 -68.31456 37780 ft 433 kts 223°
2026-05-04 20:33 44.80863 -68.36874 37781 ft 432 kts 223°
2026-05-04 20:34 44.76237 -68.42281 37782 ft 431 kts 223°
2026-05-04 20:34 44.71634 -68.47651 37780 ft 431 kts 223°
2026-05-04 20:35 44.67024 -68.53016 37776 ft 431 kts 223°
2026-05-04 20:35 44.62418 -68.58366 37773 ft 431 kts 223°
2026-05-04 20:36 44.57823 -68.63691 37773 ft 430 kts 223°
2026-05-04 20:36 44.53229 -68.69003 37773 ft 430 kts 222°
2026-05-04 20:37 44.48601 -68.74345 37773 ft 430 kts 222°
2026-05-04 20:37 44.43986 -68.79661 37773 ft 430 kts 222°
2026-05-04 20:38 44.39378 -68.84956 37774 ft 430 kts 222°
2026-05-04 20:38 44.34762 -68.90250 37580 ft 430 kts 222°
2026-05-04 20:39 44.32462 -68.92883 37384 ft 428 kts 222°
2026-05-04 20:39 44.30176 -68.95496 37187 ft 425 kts 222°
2026-05-04 20:39 44.27903 -68.98093 37007 ft 422 kts 222°
2026-05-04 20:39 44.25643 -69.00671 36827 ft 420 kts 222°
2026-05-04 20:40 44.23395 -69.03235 36645 ft 418 kts 223°
2026-05-04 20:40 44.21157 -69.05785 36463 ft 416 kts 223°